Location: *
(46.1006°N, 1.8394°E)
Time: 10:08:32
(UTC+00:00)

EO 1 Delta rocket - Pass Details

Date: 20 September 2019
Orbit: 697 x 1792 km, 95.4° (Epoch: 18 October)

Event Time Altitude Azimuth Distance (km) Brightness Sun altitude
Rises 19:04:35 0° 163° (SSE) 4,148 7.5 -12.7°
Reaches altitude 10° 19:07:30 10° 162° (SSE) 3,023 6.8 -13.2°
Maximum altitude 19:14:12 77° 79° (E) 972 4.4 -14.3°
Drops below altitude 10° 19:19:31 10° 354° (N) 2,418 6.9 -15.2°
Sets 19:21:38 0° 353° (N) 3,267 7.6 -15.6°
